Regional Weather Roundup
Issued by NWS

Home | Current Version | Previous Version | Text Only | Print | Product List | Glossary Off
Versions: 1 2 3 4 5 6 7 8 9 10 11 12 13 14 15 16 17 18 19 20 21 22 23 24 25 26 27 28 29 30 31 32 33 34 35 36 37 38 39 40 41 42 43 44 45 46 47 48 49 50

000
ASUS43 KDMX 042001
RWRIA

WEATHER ROUNDUP FOR IOWA
NATIONAL WEATHER SERVICE DES MOINES IA
200 PM CST SUN DEC 04 2016

NOTE: "FAIR" INDICATES FEW OR NO CLOUDS BELOW 12,000 FEET WITH NO
SIGNIFICANT WEATHER AND/OR OBSTRUCTIONS TO VISIBILITY.

* - THESE STATIONS ARE NOT NWS STATIONS...THUS NOT UNDER NWS
QUALITY CONTROL.  THEY ALSO DO NOT REPORT WEATHER SUCH
AS PRECIPITATION OR FOG.

IAZ001>003-012>014-020>022-031>034-043>046-042100-
   NORTHWEST IOWA

CITY           SKY/WX    TMP DP  RH WIND       PRES   REMARKS
CARROLL *      PTSUNNY   37  36  93 SW14      29.87F WCI  29
CHEROKEE *     SUNNY     45  37  74 SW12      29.84F
DENISON *      SUNNY     41  36  81 W9        29.86S
LE MARS *      SUNNY     48  34  57 W8        29.84F
ORANGE CITY *  SUNNY     45  36  70 W8        29.83S
SHELDON *      SUNNY     45  36  70 W16       29.80F
SIOUX CITY     SUNNY     51  35  54 W9        29.85F
SPENCER        SUNNY     45  35  68 W15G23    29.81F
STORM LAKE *   SUNNY     37  36  93 SW13      29.84F WCI  29
$$

IAZ055>058-069>071-079>083-090>094-042100-
   SOUTHWEST IOWA

CITY           SKY/WX    TMP DP  RH WIND       PRES   REMARKS
ATLANTIC *     PTSUNNY   36  34  93 W10       29.90F FOG     WCI  28
AUDUBON *      CLOUDY    36  30  80 SW9       29.90S FOG     WCI  29
CLARINDA *       N/A     41  37  87 W8G14     29.94F
COUNCIL BLFS * SUNNY     37  34  87 W8        29.90F WCI  31
CRESTON *      CLOUDY    36  34  93 W10       29.91F WCI  28
HARLAN  *      PTSUNNY   36  34  93 SW8       29.93F WCI  29
LAMONI         CLOUDY    38  35  89 W10       29.90F WCI  31
RED OAK *      MOSUNNY   41  36  81 W10       29.91F
SHENANDOAH *   PTSUNNY   41  37  87 W8        29.93F
$$

IAZ047>049-059>061-072>074-084-042100-
   CENTRAL IOWA

CITY           SKY/WX    TMP DP  RH WIND       PRES   REMARKS
AMES           CLOUDY    34  33  96 W10       29.89F WCI  26
ANKENY *       CLOUDY    36 N/A N/A W9        29.90F WCI  29
BOONE *        CLOUDY    34  32  93 W9G17     29.87F WCI  26
CHARITON *       N/A     36  34  93 W8        29.90F WCI  29
DES MOINES     CLOUDY    39  35  86 W13       29.89F WCI  31
GRINNELL*      CLOUDY    33  32  96 SW8       29.89F FOG     WCI  26
KNOXVILLE *    CLOUDY    36  34  93 W12       29.89F WCI  27
MARSHALLTOWN   CLOUDY    33  33 100 SW10      29.88F FOG     WCI  25
NEWTON *       CLOUDY    34  34 100 SW7       29.88F FOG     WCI  28
PELLA *        CLOUDY    36  34  95 W9        29.91F WCI  29
PERRY *        CLOUDY    36  35  95 W14       29.89F FOG     WCI  27
$$

IAZ004>006-015-016-023>025-035-036-042100-
   NORTH CENTRAL IOWA

CITY           SKY/WX    TMP DP  RH WIND       PRES   REMARKS
ALGONA *       PTSUNNY   37  34  87 SW13      29.83F WCI  29
CLARION *      CLOUDY    34  34 100 SW10G16   29.86F WCI  26
ESTHERVILLE    MOSUNNY   41  38  89 W13       29.80F
FORT DODGE *   CLOUDY    36  30  80 SW13      29.87F WCI  27
MASON CITY     CLOUDY    34  30  85 SW13      29.85F WCI  25
WEBSTER CITY * CLOUDY    34  34 100 SW12      29.85F WCI  25
IOWA FALLS *   CLOUDY    35  32  90 W14       29.87F WCI  25
$$

IAZ007>011-017>019-026>030-037>042-050>054-066-042100-
   NORTHEAST IOWA

CITY           SKY/WX    TMP DP  RH WIND       PRES   REMARKS
CEDAR RAPIDS   CLOUDY    32  32 100 S8        29.89F WCI  25
CHARLES CITY * FOG       34  34 100 SW9       29.86F VSB 1/2 WCI  26
CLINTON *      LGT SNOW  32  30  92 SE9       29.93F VSB 1   WCI  24
DECORAH *      CLOUDY    32  32 100 S9        29.84F WCI  24
DUBUQUE        SNOW      30  29  96 S10       29.90F VSB 1/2 WCI  21
MONTICELLO *   CLOUDY    32  32 100 VRB3      29.90F FOG
OELWEIN *      CLOUDY    32  32 100 S13       29.87F FOG     WCI  22
WATERLOO       CLOUDY    33  32  96 S8        29.87F FOG     WCI  26
$$

IAZ064-065-067-068-078-042100-
   EAST CENTRAL IOWA

CITY           SKY/WX    TMP DP  RH WIND       PRES   REMARKS
DAVENPORT      SNOW      32  30  92 SE6       29.93F VSB 1/2 WCI  26
IOWA CITY      CLOUDY    34  32  92 S5        29.93F FOG     WCI  30
MUSCATINE *    LGT SNOW  34  32  93 SE3       29.93F
QUAD CITIES    LGT SNOW  33  30  88 SE6       29.92F VSB 1   WCI  28
$$

IAZ062-063-075>077-085>089-095>099-042100-
   SOUTHEAST IOWA

CITY           SKY/WX    TMP DP  RH WIND       PRES   REMARKS
BURLINGTON     LGT SNOW  33  33 100 CALM      29.92F FOG
FAIRFIELD *    CLOUDY    34  32  93 S6        29.91F WCI  29
FORT MADISON * LGT SNOW  34  32  93 CALM      29.92F
KEOKUK *       CLOUDY    34  34 100 S5        29.92F WCI  30
OSKALOOSA *    CLOUDY    33  32  95 SW6       29.91F WCI  28
CENTERVILLE *  CLOUDY    36  34  93 W9        29.92F WCI  29
OTTUMWA        CLOUDY    35  32  88 SW5       29.90F WCI  31
WASHINGTON *   CLOUDY    34  32  93 S8        29.92F FOG     WCI  27
$$

ABBREVIATIONS USED IN REMARKS
   TC - TEMPERATURES IN CELSIUS
  WCI - WIND CHILL INDEX
   HX - HEAT INDEX
  VSB - VISIBILITY
$$




USA.gov is the U.S. government's official web portal to all federal, state and local government web resources and services.